Tuesday, October 21, 2014
05:27 UTC
  |  Log In   |  Register Free
Airport Search:

South Alabama Regional At Bill Benton Field Airport
(79J)

South Alabama Regional At Bill Benton Field Airport Diagram
No Airport Diagram Available

FAA data valid effective September 18, 2014 - November 13, 2014 (unless otherwise noted).

 
 
 
 
 
 
 
 
 
 
 
 
 
 

Current Aviation Weather for South Alabama Regional At Bill Benton Field Airport (79J)

METAR data is unavailable for 79J. The nearest METAR location is at KEDN (25.2 nm SE from 79J).

The most recent METAR observation for KEDN was updated at: 0523
METAR Summary (Translated METAR)
KEDN
210455Z AUTO 00000KT 7SM CLR 12/11 A3000 RMK AO2
(25.2 nm SE from 79J)
KSXS
210256Z AUTO 33001KT 10SM CLR 13/13 A3004 RMK AO2 SLP173 T01340126 52007
(28 nm NE from 79J)
TAF
No TAF information found within 50 nm of KLOR
  Airport Weather Conditions for 79J

Current weather conditions are
not available for 79J


The nearest NOAA weather station
is at CEW, (32.5 nm SW from 79J)
  
 Current Weather at CEW
51° F
Fair
North winds at 0.0 mph
CEW NOAA Radar

Pressure: 30.01 in
Humidity: 100%
Wind: Calm
Dew Point: 51.1°F
Visibility: 7.00 mi


Airport Weather Forecast for 79J

Translated METAR and TAF for KLOR
Translated METAR for KLOR (0521 UTC 21 October 2014)
found at http://aviationweather.gov/adds/metars/
 
METAR text: KLOR 210453Z AUTO 00000KT 8SM CLR 12/11 A2999 RMK AO2 SLP154 T01170106 402560072 TSNO $
Conditions at: KLOR (LOWE AHP/FT. RUC, AL, US) observed 0453 UTC 21 October 2014
Temperature: 11.7°C (53°F)
Dewpoint: 10.6°C (51°F) [RH = 93%]
Pressure (altimeter): 29.99 inches Hg (1015.7 mb)
[Sea-level pressure: 1015.4 mb]
Winds: calm
Visibility: 8 miles (13 km)
Ceiling: at least 12,000 feet AGL
Clouds: sky clear below 12,000 feet AGL
Weather:
SOME DATA ABOVE MAY BE INACCURATE!!!
"$" is an indication the sensor requires maintenance
Translated TAF for KLOR

There is no translated TAF available for this airport

Find All Airport Services Find A Hotel Find A Rental Car Find A Golf Course Find A Restaurant $100 Hamburger



FBO's on the Field
FBO Company Facility Photos Services Transportation Aviation Fuel Prices: Prices include tax
Catering Weather Repair Courtesy Rental Type 100LL JetA JetA+ MOGAS 8087
 
South Alabama Regional Airport

This FBO has not yet been rated
FS: Phillips 66
Last Updated: Oct-07
Login to update fuel prices
SS:
Contact South Alabama Regional AirportMore FBO Information
 
Add another FBO Facility Photos Catering Weather Repair Courtesy Rental Type 100LL JetA JetA+ MOGAS 8087
Services Transportation Aviation Fuel Prices: Prices include tax


model-print
model-print
model-print
model-print